Location: Unspecified
(20.0000°S, 0.0000°E)
Time: 22:18:58
(UTC+00:00)

KKS-1 - Pass Details

Date: 27 August 2019
Orbit: 638 x 649 km, 98.3° (Epoch: 15 September)

Event Time Altitude Azimuth Distance (km) Brightness Sun altitude
Rises 18:18:15 0° 27° (NNE) 2,949 ? -7.3°
Reaches altitude 10° 18:20:31 10° 33° (NNE) 2,046 ? -7.8°
Maximum altitude 18:24:45 44° 104° (ESE) 907 ? -8.8°
Drops below altitude 10° 18:29:01 10° 176° (S) 2,064 ? -9.8°
Sets 18:31:19 0° 182° (S) 2,979 ? -10.3°
